Home   Weather   Wiesbaden   Past weeks

Flag for Germany Past Weather in Wiesbaden, Hesse, Germany — Yesterday and Last 2 Weeks

Now
82 °F

Sunny.


Feels Like: 80 °F
Forecast: 62 / 80 °F
Wind: No wind

Location: Wiesbaden Airport

Current Time: Aug 31, 2016 at 6:16:16 PM

Latest Report: Aug 31, 2016 at 4:58 PM


Visibility: N/A

Pressure: 30.10 "Hg

Humidity: 25%

Dew Point: 43 °F

Location of WiesbadenLocation

Past Weather in Wiesbaden — Graph

°F

Wiesbaden Temperature Yesterday

Maximum temperature yesterday: 77 °F (at 5:58 PM)
Minimum temperature yesterday: 61 °F (at 6:58 AM)
Average temperature yesterday: 68 °F

High & Low Weather Summary for the Past Weeks

 TemperatureHumidityPressure
High93 °F (Aug 27, 4:58 PM)89% (Aug 22, 6:58 AM)30.39 "Hg (Aug 22, 6:58 AM)
Low52 °F (Aug 18, 6:58 AM)22% (Aug 16, 5:58 PM)29.79 "Hg (Aug 18, 5:58 PM)
Average70 °F55%30.06 "Hg
* Reported Aug 16 4:58 PM — Aug 31 4:58 PM, Wiesbaden, Weather by CustomWeather, © 2016

Note: Actual official high and low records may vary slightly from our data, if they occured in-between our weather recording intervals... More about our weather records

Advertising

Wiesbaden Weather History for the Previous 24 Hours

Scroll right to see more
 ConditionsComfort  
Time TempWeatherWind HumidityBarometerVisibility
4:58 PM
Wed, Aug 31
82 °FSunny.No wind25%30.10 "HgN/A
3:58 PM81 °FSunny.3 mph26%30.11 "HgN/A
2:58 PM81 °FSunny.6 mph28%30.12 "HgN/A
1:58 PM78 °FSunny.No wind31%30.13 "HgN/A
12:58 PM75 °FSunny.1 mph36%30.15 "HgN/A
11:58 AM73 °FSunny.6 mph44%30.16 "HgN/A
10:58 AM70 °FSunny.9 mph46%30.17 "HgN/A
9:58 AM66 °FSunny.12 mph49%30.18 "HgN/A
8:58 AM66 °FSunny.9 mph46%30.17 "HgN/A
7:58 AM63 °FSunny.7 mph52%30.17 "HgN/A
6:58 AM61 °FClear.6 mph55%30.17 "HgN/A
5:58 AM63 °FClear.8 mph49%30.16 "HgN/A
4:58 AM63 °FClear.7 mph49%30.17 "HgN/A
3:58 AM63 °FClear.6 mph49%30.17 "HgN/A
2:58 AM65 °FClear.5 mph46%30.18 "HgN/A
1:58 AM65 °FClear.6 mph45%30.19 "HgN/A
12:58 AM66 °FClear.7 mph43%30.20 "HgN/A
11:58 PM
Tue, Aug 30
67 °FClear.7 mph43%30.20 "HgN/A
10:58 PM65 °FClear.5 mph48%30.21 "HgN/A
9:58 PM66 °FClear.6 mph46%30.21 "HgN/A
8:58 PM68 °FSunny.7 mph41%30.21 "HgN/A
7:58 PM73 °FSunny.6 mph31%30.19 "HgN/A
6:58 PM75 °FSunny.5 mph29%30.19 "HgN/A
Weather by CustomWeather, © 2016

See weather overviewHow to use our weather pages